Starlink 35819

operational
NORAD ID: 66285 Int'l Des: 2025-247 Owner: SPXS Country: US Constellation: starlink
NOTLE

About Starlink 35819

Description loading...

Live Position

Loading 3D Globe...

Upcoming Passes

Altitude History

Altitude vs Time

uPlot chart will show altitude changes over time

Two-Line Element Set

1 66285U 25247W 25350.91670139 .00007801 00000-0 20495-3 0 9997
2 66285 53.1581 217.5002 0001287 84.1336 84.6767 15.39599847 5892
Epoch: Dec 16, 2025 • Age: 10 hours

Current Status

Altitude 466.5 km
Velocity 7.63 km/s
Sub-Earth Point -52.80°S, 87.94°W
Launch Date Oct 31, 2025
Age 0.1 years
Type internet

Technical Details

Classification Payload
Mass 575.00 kg
Dry Mass 530.00 kg
Total Mass 575.00 kg
Length 0.30 m
Diameter 4.10 m
Span 29.00 m
Shape Box + pan
Manufacturer SPXS
Bus Type Starlink V2MO
Phase Status In Orbit
Owner/State SPXS/US

Large Constellations

Loading constellations...